Weather History for Sheridan, WY

Change the Weather History Date:

Sunday, March 2, 2014

  Actual Average Record
Temperature  
Mean Temperature -6 °F 31 °F  
Max Temperature 1 °F 44 °F 68 °F (1992)
Min Temperature -14 °F 18 °F -17 °F (1943)
Degree Days  
Heating Degree Days 71 34  
Month to date heating degree days 139 69  
Since 1 July heating degree days 5889 5604  
Cooling Degree Days 0 0  
Month to date cooling degree days 0 0  
Year to date cooling degree days 0 0  
Moisture  
Dew Point -13 °F    
Average Humidity 73    
Maximum Humidity 81    
Minimum Humidity 64    
Precipitation  
Precipitation 0.00 in 0.02 in 0.33 in (1923)
Month to date precipitation 0.13 0.04  
Year to date precipitation 1.98 1.14  
Sea Level Pressure  
Sea Level Pressure 30.37 in    
Wind  
Wind Speed 3 mph (NW)    
Max Wind Speed 14 mph    
Max Gust Speed 15 mph    
Visibility 10 miles    
Events      
T = Trace of Precipitation, MM = Missing Value Source: NWS Daily Summary

Daily Weather History Graph

Daily Weather History Graph

Search for Another Location

Airport:

Trip Planner

Search our weather history database for the weather conditions in past years. The results will help you decide how hot, cold, wet, or windy it might be!

Date:

Astronomy

Mar. 02, 2014 Rise Set
Actual Time 6:43 AM MST 5:57 PM MST
Civil Twilight 6:14 AM MST 6:26 PM MST
Nautical Twilight 5:40 AM MST 7:00 PM MST
Astronomical Twilight 5:06 AM MST 7:34 PM MST
Moon 7:11 AM MST (3/2) 8:03 PM MST (3/2)
Length of Visible Light 12h 12m
Length of Day
11h 13m
Waxing Crescent, 3% of the Moon is Illuminated
Mar 2
Waxing Crescent
Mar 8
First Quarter
Mar 16
Full
Mar 23
Last Quarter
Mar 30
New

Hourly Weather History & Observations

Time (MST) Temp. Windchill Dew Point Humidity Pressure Visibility Wind Dir Wind Speed Gust Speed Precip Events Conditions
12:53 AM -9.0 °F -22.3 °F -14.1 °F 79% 30.47 in 10.0 mi NW 5.8 mph - N/A   Overcast
1:53 AM -8.0 °F -16.9 °F -15.0 °F 71% 30.48 in 10.0 mi NE 3.5 mph - N/A   Overcast
2:53 AM -7.1 °F - -15.0 °F 68% 30.45 in 10.0 mi Calm Calm - N/A   Overcast
3:53 AM -9.0 °F -25.2 °F -15.0 °F 75% 30.46 in 10.0 mi NNW 8.1 mph - N/A   Overcast
4:32 AM -9.9 °F -24.9 °F -15.0 °F 78% 30.14 in 9.0 mi North 6.9 mph - N/A   Overcast
4:51 AM -9.4 °F -25.6 °F -14.8 °F 77% 30.15 in 7.0 mi NNW 8.1 mph - N/A   Overcast
4:53 AM -9.9 °F -26.3 °F -16.1 °F 74% 30.48 in 7.0 mi NNW 8.1 mph - N/A   Overcast
5:53 AM -11.0 °F -22.8 °F -16.1 °F 78% 30.48 in 10.0 mi North 4.6 mph - N/A   Overcast
6:53 AM -14.1 °F -26.3 °F -18.9 °F 79% 30.47 in 10.0 mi NNW 4.6 mph - N/A   Partly Cloudy
7:53 AM -13.0 °F -22.7 °F -18.9 °F 75% 30.45 in 10.0 mi North 3.5 mph - N/A   Clear
8:53 AM -13.0 °F -32.4 °F -18.9 °F 75% 30.48 in 10.0 mi NNW 10.4 mph - N/A   Clear
9:53 AM -9.0 °F -20.4 °F -17.0 °F 68% 30.45 in 10.0 mi NE 4.6 mph - N/A   Clear
10:53 AM -6.0 °F - -14.1 °F 68% 30.45 in 10.0 mi Calm Calm - N/A   Overcast
11:53 AM -7.1 °F - -13.0 °F 75% 30.43 in 10.0 mi Calm Calm - N/A   Partly Cloudy
12:53 PM -5.1 °F -13.6 °F -11.9 °F 72% 30.42 in 10.0 mi South 3.5 mph - N/A   Overcast
1:53 PM -2.9 °F - -11.0 °F 68% 30.39 in 10.0 mi Calm Calm - N/A   Mostly Cloudy
2:53 PM -2.9 °F -11.2 °F -11.0 °F 68% 30.36 in 10.0 mi SW 3.5 mph - N/A   Clear
3:53 PM -2.0 °F -10.1 °F -9.9 °F 69% 30.34 in 10.0 mi SSW 3.5 mph - N/A   Clear
4:53 PM -2.0 °F -10.1 °F -11.0 °F 66% 30.33 in 10.0 mi SW 3.5 mph - N/A   Clear
5:53 PM -2.9 °F -11.2 °F -11.0 °F 68% 30.31 in 10.0 mi WNW 3.5 mph - N/A   Clear
6:53 PM -5.1 °F - -11.9 °F 72% 30.34 in 10.0 mi Calm Calm - N/A   Clear
7:53 PM -4.0 °F - -9.9 °F 76% 30.32 in 10.0 mi Calm Calm - N/A   Mostly Cloudy
8:53 PM -2.0 °F -12.2 °F -9.0 °F 72% 30.29 in 10.0 mi South 4.6 mph - N/A   Scattered Clouds
9:53 PM -2.0 °F -10.1 °F -9.0 °F 72% 30.25 in 10.0 mi SSE 3.5 mph - N/A   Clear
10:53 PM -0.9 °F - -8.0 °F 72% 30.19 in 10.0 mi Calm Calm - N/A   Clear
11:53 PM 1.0 °F - -7.1 °F 69% 30.17 in 10.0 mi Calm Calm - N/A   Clear